2023-054AF (56207 NORAD) Tracking and Keplerian Element Data

This shows tracking and keplerian element data for the satellite.

Feedback or suggestion? Click here.




ElementValue
Catalog56207
Name2023-054AF
Epoch Orbit393
Epoch Day127.13734419
Epoch Year2023
RAAN22.7149
Inclination97.4149
Eccentricity0.0015697
Argument of Perigee152.4748
Mean Anonmoly207.7324
Mean Motion15.23484486
Decay Rate0.00020594
L11 56207U 23054AF 23127.13734419 .00020594 00000+0 86178-3 0 9993
L22 56207 97.4149 22.7149 0015697 152.4748 207.7324 15.23484486 3935



Live tracking and technical data element details for 2023-054AF (NORAD 56207). 2023-054AF can be tracked NOW for your location showing map with azimuth and elevation plus other details from your city location.







IsCatalogInMostPopularTable: catalog: 56207, numindb: 7
Update: records affected: 1



GetName: 56207 2023-054AF

Hit Count: updated at: Wed, 07 Jun 2023 08:22:00 GMT